Hourly Weather Roundup
Issued by NWS

Home | Current Version | Previous Version | Text Only | Print | Product List | Glossary On
Versions: 1 2 3 4 5 6 7 8 9 10 11 12 13 14 15 16 17 18 19 20 21 22 23 24 25 26 27 28 29 30 31 32 33 34 35 36 37 38 39 40 41 42 43 44 45 46 47 48 49 50
791
NZUS43 KILX 270410
HWRCRS

CRS HOURLY WEATHER ROUNDUP
NATIONAL WEATHER SERVICE, LINCOLN IL
1100 PM CDT THU MAY 26 2016


CITY           SKY/WX    TMP DP  RH WIND       PRES   REMARKS
CHAMPAIGN      CLOUDY    68  64  87 S12       29.96S
LAWRENCEVILLE  MOCLDY    67  65  93 SW3       29.97F
PEORIA         CLOUDY    74  68  81 S7        29.90F
SPRINGFIELD    CLOUDY    71  66  84 S6        29.91F
$$


CITY           SKY/WX    TMP DP  RH WIND       PRES   REMARKS
BLOOMINGTON    CLOUDY    70  70 100 S12       29.95S
DECATUR        MOCLDY    70  63  78 S10       29.94S
EFFINGHAM      CLOUDY    67  65  96 SE3       29.98F
FLORA          PTCLDY    66  64  92 SE6       29.97F
GALESBURG      CLOUDY    71  67  87 CALM      29.89F
JACKSONVILLE   CLOUDY    72  66  82 SE5       29.89F
LACON          CLOUDY    73  68  82 S3        29.89F
LINCOLN        CLOUDY    70  68  92 CALM      29.93F
LITCHFIELD     CLOUDY    68  64  86 SE12      29.95R

CITY           SKY/WX    TMP DP  RH WIND       PRES   REMARKS
MACOMB         CLOUDY    73  69  86 SE7       29.90S
MATTOON        CLOUDY    67  62  84 S9        29.95F
MOLINE         CLOUDY    77  63  61 W6        29.86F
OLNEY          CLOUDY    64  63  94 S3        29.98S
PARIS          CLOUDY    66  65  94 S3        29.98S
PONTIAC        CLOUDY    74  69  84 S10       29.93S
QUINCY         CLOUDY    71  63  75 W20G30    29.89F
RANTOUL        MOCLDY    69  67  92 S6        29.96S
ROBINSON       CLOUDY    66  64  93 S7        29.98S
TAYLORVILLE    CLOUDY    68  65  88 S13       29.93F
TERRE HAUTE    CLOUDY    66  62  87 S5        29.98S
$$


CITY           SKY/WX    TMP DP  RH WIND       PRES   REMARKS
BURLINGTON     TSTM      71  63  75 W9        29.90S
CHICAGO        CLOUDY    76  64  66 E6        29.88S
DES MOINES     LGT RAIN  63  59  87 SW6       29.88F
EVANSVILLE     PTCLDY    64  62  93 W3        29.97F
INDIANAPOLIS   CLOUDY    67  62  84 S8        29.97F
KANSAS CITY    RAIN      62  60  93 N15       29.88F FOG
MILWAUKEE      CLOUDY    72  61  68 CALM      29.88F
ST LOUIS       TSTM      74  65  73 S14G21    29.92S
$$





USA.gov is the U.S. government's official web portal to all federal, state and local government web resources and services.